Regional Weather Roundup
Issued by NWS Newport/Morehead, NC

Current Version | Previous Version | Text Only | Print | Product List | Glossary On
Versions: 1 2 3 4 5 6 7 8 9 10 11 12 13 14 15 16 17 18 19 20 21 22 23 24 25 26 27 28 29 30 31 32 33 34 35 36 37 38 39 40 41 42 43 44 45 46 47 48 49 50
976
ASUS42 KMHX 241014
RWRMHX
WEATHER ROUNDUP FOR EASTERN NORTH CAROLINA
NATIONAL WEATHER SERVICE NEWPORT/MOREHEAD CITY NC
500 AM EST FRI NOV 24 2017

NOTE: "FAIR" INDICATES FEW OR NO CLOUDS BELOW 12,000 FEET
WITH NO SIGNIFICANT WEATHER AND/OR OBSTRUCTIONS TO VISIBILITY

NCZ015>017-031-032-045>047-102-103-241100-
NORTH COAST

CITY           SKY/WX    TMP DP  RH WIND       PRES   REMARKS
EDENTON        CLEAR     35  32  88 CALM      30.07S
ELIZABETH CITY CLEAR     39  34  82 N8        30.07S
KITTY HAWK     SUNNY     45  36  71 CALM      30.04S
MANTEO         PTCLDY    42  37  82 N5        30.05S

$$

NCZ045>047-081-094-103-104-241100-
CENTRAL COAST

CITY           SKY/WX    TMP DP  RH WIND       PRES   REMARKS
FRISCO         MOCLDY    51  43  74 NE8       30.01F

$$

NCZ095-097-098-100-101-241100-
SOUTHERN COAST

CITY           SKY/WX    TMP DP  RH WIND       PRES   REMARKS
BEAUFORT       CLOUDY    46  41  82 N13       30.02S
CEDAR ISLAND   NOT AVBL
JACKSONVILLE   CLOUDY    39  37  92 N7        30.03R
PINEY ISLAND     N/A    N/A N/A N/A N12       30.03R
WILMINGTON     CLOUDY    44  37  76 N9        30.02R


$$

NCZ011>013-027>030-043-044-078>080-089-090>093-098-241100-
COASTAL PLAIN

CITY           SKY/WX    TMP DP  RH WIND       PRES   REMARKS
AHOSKIE        CLEAR     26  26  96 CALM      30.08F
CLINTON        CLEAR     34  34 100 CALM      30.06S
ELIZABETHTOWN  NOT AVBL
GOLDSBORO      CLEAR     32  29  90 CALM      30.05S
GREENVILLE     CLEAR     28  28 100 CALM      30.08S FOG
HAVELOCK       NOT AVBL
KENANSVILLE    CLEAR     30  30 100 N5        30.06S FOG
KINSTON        CLEAR     29  29  99 CALM      30.07S
NEW BERN       CLOUDY    37  36  96 N7        30.06R
RICHLANDS      CLOUDY    35  34  96 NE5       30.05S
ROCKY MOUNT    FOG       28  27  96 CALM      30.08R VSB 1
WASHINGTON     CLEAR     31  30  95 N5        30.07R
WHITEVILLE     CLEAR     38  36  90 NE3       30.02F

$$

AMZ130-135-150-152-154-156-158-170-250-252-270-ANZ085-086-088-633-658-670-241100-
MARINE OBSERVATIONS

STATION/POSITION TIME  TEMP    WIND        PRES    WAVE   SWELL
                       AIR SEA DIR/SP/G            HT/PER HT/PER
                 (UTC) (F)     (DEG/KT/KT) (MB)    (FT/S) (FT/S)
CHESAPEAKE LIGHT NOT AVBL
64 E VA BEACH    0950   49 58   20/ 10/ 16 1018.3    5/ 9   5/ 9
DUCK             0942   48 57   30/ 13/ 15 1017.2
2 E DUCK         1000      60                N/A     4/11   2/11
OREGON INLET     0942   49 57   10/ 11/ 15 1017.0
13E OREGON INLT  0948      62                N/A     6/ 9   7/ 9
HATTERAS CG      0942   51 58   20/ 16/ 19 1016.1
DIAMOND BUOY     0950   58 72   20/ 17/ 23 1015.7    6/11   5/11
CAPE LOOKOUT     1000           20/ 14/ 16 1016.2
BEAUFORT LAB     0942   47 58   20/ 11/ 14 1016.4
30 SE NEW RVR IN 0908   55 67   50/ 16/ 21 1015.6
30 SE NEW RVR IN 1000      67                N/A     6/ 8   2/11
27 SE WRIGHTSVLE 0908   56 71   40/ 19/ 27 1014.8
5 SE WRIGHTSVLE  0908   51 63   20/ 14/ 19 1015.4
225 S CAPE HAT   0950   72 76   90/ 16/ 19 1009.9    9/ 8   7/ 8
41 SE CHARLESTON 0950   64 74   30/ 23/ 27 1012.3    8/ 8   3/10

$$




USA.gov is the U.S. government's official web portal to all federal, state and local government web resources and services.